Location: Sternwarte_Laufen
(47.9344°N, 12.9346°E)
Time: 10:40:28
(UTC+02:00)

ISS - Pass Details

Date: 26 May 2017
Orbit: 401 x 408 km, 51.6° (Epoch: 23 June)

Event Time Altitude Azimuth Distance (km) Brightness Sun altitude
Rises 03:22:35 0° 292° (WNW) 2,336 -0.1 -14.4°
Reaches altitude 10° 03:24:43 10° 286° (WNW) 1,471 -1.2 -14.2°
Maximum altitude 03:27:54 46° 212° (SSW) 553 -3.6 -13.9°
Drops below altitude 10° 03:31:01 10° 137° (SE) 1,446 -1.2 -13.6°
Sets 03:33:10 0° 132° (SE) 2,313 -0.1 -13.4°
